maandag 11 december 2017 Home | Bestenlijsten | Nieuws | Uitslagen | Wedstrijden | VZA Ranglijsten | Weer |
 
 
Recent nieuws meer nieuws
11-12: De ene crosser is de andere niet
29-11: Komen sportorganisaties onder druk te staan?
21-11: Verspringer Steven Nuytinck moet stoppen vanwege achillespeesblessure
11-11: 50e Mosselloop is prooi voor El Mouaziz
05-11: Erwin Harmes en Tim van den Broeke winnen Trail by the Sea
04-11: Tim van den Broeke winnaar Moerschanscross
Wedstrijdagenda meer wedstrijden
za 16-12: Kriekeloop Clinge
za 16-12: Stratenloop Menheerse Middelharnis
za 16-12: 18e Aagtekerke Run
zo 17-12: 12e Spark marathon Spijkenisse
di 26-12: Kerstloop Dishoek
za 30-12: Eindejaarscross Axel
zo 31-12: 37e Sylvestercross Soest
zo 31-12: Tankloop Westkapelle
zo 31-12: 2e Natuurloop Aardenburg
vr 05-01: Ondoloop Sint Laurens
za 06-01: Jeff Thuy Memorial Heikant
za 06-01: Sportdorploop Oostkapelle
za 06-01: 57e Wallenloop Goes
zo 07-01: Scheidsrechtersloop Vlissingen
za 13-01: 20e Steense Rattenloop Sint Jansteen
za 13-01: 46e Deltacross Westenschouwen
Recente uitslagen meer uitslagen
zo 10-12: Jules Unlimitedloop Breskens
za 09-12: Halve Marathon Terneuzen (142)
za 02-12: 25e Inkelcross Kruiningen (154)
zo 26-11: 18e Zakloop Nisse (668)
za 25-11: 32e Elderschanscross Aardenburg (115)
za 18-11: 17e Hobbeldebobbelloop Zoutelande (293)
zo 12-11: 1e Natuurloop Retranchement (73)
za 11-11: 50e Mosselloop Westenschouwen (363)
za 11-11: Jeff Thuy Memorial Heikant (134)
zo 05-11: 7e Trail By The Sea Renesse (405)
za 04-11: Appelloop Axel (172)
za 04-11: 32e Moerschanscross Hulst (126)
za 28-10: 16e Piet Spruit Memorial Loop Sluiskil (119)
 
Zoek tenminste met 3 tekens van wedstrijd, datum, plaats of atleet
28e Kustcross
Vlissingen, zaterdag 4 maart 2017 - Organisatie: Dynamica
10.14 km
PltsNaam
Tijdkm/umin/km
1  Tim PleijteDynamica35.19Mse   17.227  3:29
2  Eric WolfertFlakkee37.44Mse   16.124  3:43
3  Michael DewildeSMO37.46M35   16.109  3:43
4  David BoumanFlakkee37.56Mse   16.039  3:44
5  Michiel LelieRKHAV39.06Mse   15.560  3:51
6  Michel BuijckDynamica39.24M40   15.442  3:53
7  Arjo VerhageDynamica40.49M45   14.906  4:02
8  Willem de KorteGonzalez Running40.56Mse   14.863  4:02
9  Benny ThuyRKHAV41.10M45   14.779  4:04
10  Chris de SmitRKHAV41.24M35   14.696  4:05
11  Wilko de VosAV'5641.29M50   14.666  4:05
12  Piet van MourikDelta Sport42.04M50   14.463  4:09
13  Jan den DobbelaereSHO42.20M45   14.372  4:10
14  Adriaan WielesScheldesport42.37M45   14.276  4:12
15  Edwin van AlphenDynamica43.11M45   14.089  4:16
16  Rob SchaapVlissingen43.55M55   13.854  4:20
17  Martijn de VriesMiddelburg44.04M35   13.806  4:21
18  Henrik WesterweeleDynamica44.07M35   13.791  4:21
19  Mirthe OverkampPhoenix44.24Vse   13.703  4:23
20  Erwin AdanDynamica44.29Mse   13.677  4:23
21  Bart de VisserSerooskerke44.32Mse   13.662  4:24
22  Frederique VersluijsWielingen44.37V45   13.636  4:24
23  Ronald GeertseSerooskerke44.43M35   13.606  4:25
24  Francois v d BroeckeWielingen44.52M45   13.560  4:25
25  Ruud GoedhartFlakkee45.08Mse   13.480  4:27
26  Barry de GrootSteenbergen45.16M35   13.440  4:28
27  Rian van den BroekeDynamica45.20M55   13.421  4:28
28  Robin de VosAV'5645.36Mse   13.342  4:30
29  Jeroen de NoodDynamica45.57M35   13.240  4:32
30  Remco KapteijnAV'5646.05M40   13.202  4:33
31  Henk LousDynamica46.09M55   13.183  4:33
32  Danmar DeesAV'5646.12M45   13.169  4:33
33  Alwin de ZeeuwScheldesport46.56M45   12.963  4:38
34  Walther MurreScheldesport47.09M45   12.903  4:39
35  Kees den HollanderDreischor47.11M45   12.894  4:39
36  Johan Loois47.37Mse   12.777  4:42
37  Jaap van der VeenScheldesport47.58M45   12.684  4:44
38  Albert PlatteeuwScheldesport48.28M50   12.553  4:47
39  Pieter MoelkerKloetinge49.30M45   12.291  4:53
40  Jacques ZamanScheldesport49.51M55   12.205  4:55
41  Monica SanderseDynamica49.53Vse   12.196  4:55
42  Siem CornelisseDynamica50.04M65   12.152  4:56
43  Marco BrandesMiddelburg50.07M35   12.140  4:57
44  Renate de ReusVlissingen50.21Vse   12.083  4:58
45  Johan de VliegerDynamica50.28M60   12.055  4:59
46  Martin FaasFlakkee50.30M45   12.048  4:59
47  Durby MeijboomVlissingen50.58V35   11.937  5:02
48  Gerard BrasDynamica51.25M60   11.833  5:04
49  Ron DellebekeDynamica51.36M55   11.791  5:05
50  Jan HeshofSteenbergen51.43M45   11.764  5:06
51  John GuequierreDynamica52.10M65   11.663  5:09
52  Piet BeijerDynamica52.56M65   11.494  5:13
53  Maartje KasteleinVlissingen52.58Vse   11.486  5:13
54  Dave LouwsDynamica53.13M65   11.433  5:15
55  Jannie de VriesDynamica53.19V55   11.411  5:15
56  Stefan van HemertMiddelburg53.55Mse   11.284  5:19
57  Johan DekkerMiddelburg54.04M55   11.253  5:20
58  Rian FlikweertDynamica54.11V55   11.229  5:21
59  Petra VerhulstDynamica54.38V45   11.136  5:23
60  Maurice SteketeeMiddelburg54.42M35   11.122  5:24
61  Bram van EenenaamNieuw- en Sint Joosland55.04M55   11.048  5:26
62  Ad van den BergAV'5655.52M35   10.890  5:31
63  Marjan HamelinckRKHAV56.24V45   10.787  5:34
64  Marcel SchoulsDynamica56.38M45   10.743  5:35
65  Kobus BotmanDynamica56.51M65   10.702  5:36
66  Evert JobseOost-Souburg57.55Mse   10.505  5:43
67  Imo JongepierNieuw- en Sint Joosland58.29M65   10.403  5:46
68  Ineke TempelaarDynamica59.53V55   10.160  5:54
69  Lena KleingeldVlissingen1.00.56V55   9.985  6:01
70  Berry HeereboutDynamica1.01.41M65   9.863  6:05
71  Abheeru DaansenOost-Souburg1.05.24M55   9.303  6:27
72  Hans van SluijsDynamica1.05.26M65   9.298  6:27
73  Lenie van KlevenVlissingen1.06.01V60   9.216  6:31
Mannen: 60 (82.19%) => M35=10 - M40=2 - M45=15 - M50=3 - M55=8 - M60=2 - M65=8 - Mse=12
Vrouwen: 13 (17.81%) => V35=1 - V45=3 - V55=4 - V60=1 - Vse=4
3.22 km
PltsNaam
Tijdkm/umin/km
1  Maikel PeemanFlakkee11.13Mse   17.224  3:29
2  Bezuayehu PetersenAV'5611.24JoB   16.947  3:32
3  Bereket PetersenAV'5611.30JoB   16.800  3:34
4  Wouter VerstraateWestkapelle12.09Mse   15.901  3:46
5  Franklin van AnrooijAV'5612.21Mse   15.644  3:50
6  Niels van TuilAV'5612.25JoB   15.560  3:51
7  Bart BalkenendeAV'5612.27Mse   15.518  3:52
8  Paavo de LengDynamica12.30JoB   15.456  3:53
9  Marc van AckerHulst12.34Mse   15.374  3:54
10  Dennis ThuyRKHAV12.44Mse   15.173  3:57
11  Anjolie EngelsVZA12.49V40   15.074  3:59
12  Ewout van SluisFlakkee13.09Mse   14.692  4:05
13  Matthijs van DriesscheRKHAV13.20Mse   14.490  4:08
14  Veerle van CampenhoutRKHAV14.50Vse   13.025  4:36
15  Mirthe de ZeeuwScheldesport15.10MeB   12.738  4:43
16  Ronny VersluijsWielingen15.15M45   12.669  4:44
17  Emma van MourikDelta Sport15.22Vse   12.573  4:46
18  Jos de KreekScheldesport15.30M50   12.465  4:49
19  Judith DierenFlakkee16.02MeB   12.050  4:59
20  Paulette de KrakerDynamica16.27Vse   11.745  5:07
21  Esther van SluijsAV'5617.00V40   11.365  5:17
22  Naomi Schelfhout17.42Vse   10.915  5:30
23  Peter van OrsouwOss17.52Mse   10.813  5:33
24  George SchanckWielingen18.24Mse   10.500  5:43
25  Marielle SimonseAV'5619.15V40   10.036  5:59
26  Gisela NijsseAV'5619.55Vse   9.700  6:11
Mannen: 12 (46.15%) => M45=1 - M50=1 - Mse=10
Vrouwen: 8 (30.77%) => V40=3 - Vse=5
Jongens: 4 (15.38%) => JoB=4

Overzicht Top3, winnares en aantal deelnemers in eerdere jaren

JaarWinnaarTijd2eTijd 3eTijdWinnaresTijd#
2017Maikel Peeman11:13Bezuayehu Petersen11:24Bereket Petersen11:30Anjolie Engels12:4926
2016Jasper Zuidhof11:41Patrick de Vos11:47Franklin van Anrooij11:52Veerle Campenhout14:5127
2015Tommy Staal11:31Wouter Verstraate12:14Jasper Zuidhof12:31Shanice Harmon14:4919


Snelheid en tempo zijn berekend op de vermelde afstand. Bij een onjuiste afstand wijken deze uiteraard af!

Fouten melden via info@atletiekzeeland.nl Categorie fout? Mail dan geboortedatum. (geldt alleen voor Zeeuwen)

De server had 0.127 seconden nodig om deze lijst met 99 prestaties samen te stellen.

Terug naar boven

Vorige uitslagen
DatumWedstrijdPlaatsVereniging Hits
27-02-2016 27e KustcrossVlissingenDynamica1341
07-03-2015 26e KustcrossVlissingenDynamica1684
01-03-2014 25e KustcrossVlissingenDynamica2028
02-03-2013 24e KustcrossVlissingenDynamica1614
03-03-2012 23e KustcrossVlissingenDynamica2000
11-12-2010 22e KustcrossVlissingenDynamica1932
12-12-2009 21e KustcrossVlissingenDynamica1815
13-12-2008 20e KustcrossVlissingenDynamica939
17-02-2007 18e KustcrossVlissingenDynamica1454
15-12-2007 19e KustcrossVlissingenDynamica1406
25-02-2006 17e KustcrossVlissingenDynamica1192
19-02-2005 16e KustcrossVlissingenDynamica724
14-02-2004 15e KustcrossVlissingenDynamica783
15-02-2003 14e KustcrossVlissingenDynamica759
23-02-2002 13e KustcrossVlissingenDynamica847
24-02-2001 12e KustcrossVlissingenDynamica702
26-02-2000 11e KustcrossVlissingenDynamica762
20-02-1999 10e KustcrossVlissingenDynamica785

 
Recente Zeeuwse prestaties meer prestaties
26-11: Halve Marathon Tarragona (1)
26-11: Firenze Marathon Florence (4)
19-11: 34e Zevenheuvelenloop Nijmegen (72)
19-11: Ronde Venen Marathon Abcoude (2)
18-11: Juul Van De Walleloop Kieldrecht (149)
12-11: Marathon Tenerife (7)
05-11: Marathon Porto (3)
05-11: 21e Berenloop Terschelling (5)
05-11: Herbstlauf Bottrop (2)
29-10: 35e Marathon Brabant Etten-Leur (76)
29-10: 12e Drechtstadloop Dordrecht (10)
28-10: Marathon van Gent (8)
22-10: 10 van AVR Rucphen (6)
21-10: Typhoonloop Gorinchem (1)
15-10: Linker Oevert 1/2 marathon Antwerpen (12)
15-10: 42e Amsterdam Marathon (11)
08-10: Rondje Seppe Bosschenhoofd (5)
08-10: 34e Marathon Eindhoven (11)
08-10: 31e 4 Mijl van Groningen (1)
01-10: 32e Singelloop Breda (40)
Atletiek Zeeland © 2017